User: anonymous   Login
Location: Unspecified
(0.0000°N, 0.0000°E)
Time: 17:15:53
(UTC+02:00)
Language:

Cosmos 773 Rocket - Orbit

View from above orbital plane
View from above orbital plane
View from above satellite
View from above satellite

Ground track
Ground track

The orbit data is extracted from the following two-line orbital elements,

1  8344U 75094B   17264.68570692 +.00000013 +00000-0 +12659-4 0  9998
2  8344 074.0565 307.8141 0021918 188.3340 171.7454 14.39101734199304
Epoch (UTC): 21 September 2017 16:27:25
Eccentricity: 0.0021918
inclination: 74.0565°
perigee height: 746 km
apogee height: 777 km
right ascension of ascending node: 307.8141°
argument of perigee: 188.3340°
revolutions per day: 14.39101734
mean anomaly at epoch: 171.7454°
orbit number at epoch: 19930

The dashed part of the orbit path shows where the satellite is in the earth's shadow,  

DLR